Retour au catalogue

STARLINK-32360

ActifCommunicationsVLEO
NORAD 61007·PAYLOAD·🇺🇸 United States

Lancé Sep 5, 2024 depuis Cape Canaveral Space Force Station

Loading…

Prochains Passages (prochaines 24 heures)

TLE

FraisSource: CelesTrak SupGP

Époque: Sep 14, 2026, 22:11 UTC

1 61007C 24158T   26257.92479167  .00040707  00000+0  12025-2 0  2577
2 61007  53.1583 247.5982 0001508  83.5539 348.2162 15.34375521    18

Suivez STARLINK-32360 en temps réel avec AllMySat

Download on the App Store